Location: Rumah Long Bangan
(2.8362°N, 113.7519°E)
Time: 06:13:17
(UTC+00:00)

Star 48 S/N 10035-3 - Pass Details

Date: 24 October 2021
Orbit: 301 x 30327 km, 22.7° (Epoch: 27 November)

Event Time Altitude Azimuth Distance (km) Brightness Sun altitude
Exits shadow 20:47:18 39° 77° (ENE) 486 5.0 -20.6°
Drops below altitude 10° 20:49:15 10° 104° (ESE) 1,462 8.2 -20.1°
Sets 20:52:12 0° 109° (ESE) 3,065 10.2 -19.4°
